Weather History for Pine River, MN

Change the Weather History Date:

Monday, December 31, 2012

  Actual Average Record
Temperature  
Mean Temperature -2 °F -  
Max Temperature 12 °F 19 °F 37 °F (2006)
Min Temperature -16 °F 2 °F -29 °F (2008)
Degree Days  
Heating Degree Days 67    
Moisture  
Dew Point -6 °F    
Average Humidity 76    
Maximum Humidity 92    
Minimum Humidity 61    
Precipitation  
Precipitation 0.00 in - - ()
Sea Level Pressure  
Sea Level Pressure 30.16 in    
Wind  
Wind Speed 5 mph (NW)    
Max Wind Speed 12 mph    
Max Gust Speed 18 mph    
Visibility 10 miles    
Events      
Averages and records for this station are not official NWS values.
T = Trace of Precipitation, MM = Missing Value Source: NWS Daily Summary

Daily Weather History Graph

Daily Weather History Graph

Search for Another Location

Airport:

Trip Planner

Search our weather history database for the weather conditions in past years. The results will help you decide how hot, cold, wet, or windy it might be!

Date:

Astronomy

Dec. 31, 2012 Rise Set
Actual Time 8:02 AM CST 4:39 PM CST
Civil Twilight 7:27 AM CST 5:14 PM CST
Nautical Twilight 6:48 AM CST 5:53 PM CST
Astronomical Twilight 6:11 AM CST 6:29 PM CST
Moon 8:25 PM CST (12/31) 9:31 AM CST (12/31)
Length of Visible Light 9h 47m
Length of Day
8h 37m
Waning Gibbous, 90% of the Moon is Illuminated
Dec 31
Waning Gibbous
Jan 4
Last Quarter
Jan 11
New
Jan 18
First Quarter
Jan 26
Full

Hourly Weather History & Observations

Time (CST) Temp. Windchill Dew Point Humidity Pressure Visibility Wind Dir Wind Speed Gust Speed Precip Events Conditions
12:13 AM 12.2 °F 0.7 °F 6.8 °F 79% 29.99 in 10.0 mi NW 8.1 mph - N/A   Scattered Clouds
12:32 AM 12.2 °F 4.3 °F 6.8 °F 79% 30.01 in 10.0 mi NW 4.6 mph - N/A   Scattered Clouds
12:53 AM 12.2 °F 2.9 °F 6.8 °F 79% 30.01 in 10.0 mi NW 5.8 mph - N/A   Mostly Cloudy
1:12 AM 10.4 °F 2.2 °F 5.0 °F 79% 30.01 in 10.0 mi WNW 4.6 mph - N/A   Mostly Cloudy
1:32 AM 10.4 °F -1.5 °F 5.0 °F 79% 30.01 in 10.0 mi NW 8.1 mph - N/A   Scattered Clouds
1:53 AM 10.4 °F -1.5 °F 5.0 °F 79% 30.02 in 10.0 mi NW 8.1 mph - N/A   Clear
2:12 AM 10.4 °F -1.5 °F 5.0 °F 79% 30.02 in 10.0 mi NW 8.1 mph - N/A   Clear
2:33 AM 8.6 °F -1.3 °F 3.2 °F 79% 30.04 in 10.0 mi WNW 5.8 mph - N/A   Clear
2:53 AM 8.6 °F -1.3 °F 1.4 °F 73% 30.06 in 10.0 mi WNW 5.8 mph - N/A   Clear
3:12 AM 8.6 °F -6.3 °F -0.4 °F 67% 30.07 in 10.0 mi NW 11.5 mph 18.4 mph N/A   Clear
3:32 AM 6.8 °F -5.9 °F -0.4 °F 72% 30.08 in 10.0 mi NW 8.1 mph - N/A   Clear
3:53 AM 5.0 °F -6.9 °F -0.4 °F 78% 30.10 in 10.0 mi NW 6.9 mph - N/A   Clear
4:11 AM 3.2 °F -10.3 °F -2.2 °F 78% 30.11 in 10.0 mi NW 8.1 mph - N/A   Clear
4:33 AM 3.2 °F -9.1 °F -2.2 °F 78% 30.11 in 10.0 mi NW 6.9 mph - N/A   Clear
4:53 AM 1.4 °F -8.3 °F -4.0 °F 78% 30.12 in 10.0 mi NW 4.6 mph - N/A   Clear
5:13 AM 1.4 °F -8.3 °F -4.0 °F 78% 30.12 in 10.0 mi NW 4.6 mph - N/A   Clear
5:33 AM -0.4 °F -14.7 °F -5.8 °F 78% 30.12 in 10.0 mi NW 8.1 mph - N/A   Clear
5:53 AM -0.4 °F -13.4 °F -5.8 °F 78% 30.14 in 10.0 mi NW 6.9 mph - N/A   Clear
6:33 AM -2.2 °F -16.8 °F -7.6 °F 78% 30.14 in 10.0 mi NW 8.1 mph - N/A   Clear
6:52 AM -2.2 °F -15.6 °F -7.6 °F 78% 30.15 in 10.0 mi NNW 6.9 mph - N/A   Clear
7:33 AM -4.0 °F -14.6 °F -7.6 °F 85% 30.16 in 10.0 mi NW 4.6 mph - N/A   Clear
8:13 AM -5.8 °F -18.4 °F -9.4 °F 84% 30.17 in 10.0 mi NW 5.8 mph - N/A   Clear
8:33 AM -5.8 °F -16.7 °F -9.4 °F 84% 30.17 in 10.0 mi NNW 4.6 mph - N/A   Clear
8:53 AM -5.8 °F -18.4 °F -9.4 °F 84% 30.17 in 10.0 mi NNW 5.8 mph - N/A   Clear
9:13 AM -4.0 °F -16.3 °F -9.4 °F 78% 30.17 in 10.0 mi NNW 5.8 mph - N/A   Clear
9:32 AM -4.0 °F -16.3 °F -9.4 °F 78% 30.18 in 10.0 mi NNW 5.8 mph - N/A   Clear
9:53 AM -2.2 °F -15.6 °F -9.4 °F 71% 30.19 in 10.0 mi North 6.9 mph - N/A   Clear
10:11 AM -2.2 °F -14.2 °F -7.6 °F 78% 30.20 in 10.0 mi North 5.8 mph - N/A   Clear
10:33 AM -2.2 °F -12.5 °F -7.6 °F 78% 30.21 in 10.0 mi NW 4.6 mph - N/A   Clear
10:53 AM -0.4 °F -8.3 °F -7.6 °F 72% 30.21 in 10.0 mi North 3.5 mph - N/A   Clear
11:12 AM 1.4 °F -11.3 °F -7.6 °F 66% 30.21 in 10.0 mi North 6.9 mph - N/A   Clear
11:33 AM 1.4 °F - -7.6 °F 66% 30.21 in 10.0 mi Calm Calm - N/A   Clear
11:53 AM 1.4 °F - -5.8 °F 72% 30.21 in 10.0 mi Calm Calm - N/A   Clear
12:12 PM 3.2 °F -6.2 °F -5.8 °F 66% 30.20 in 10.0 mi NW 4.6 mph - N/A   Clear
12:33 PM 3.2 °F -7.8 °F -5.8 °F 66% 30.20 in 10.0 mi NW 5.8 mph - N/A   Clear
12:52 PM 3.2 °F -7.8 °F -5.8 °F 66% 30.18 in 10.0 mi NW 5.8 mph - N/A   Clear
1:11 PM 5.0 °F -6.9 °F -5.8 °F 61% 30.18 in 10.0 mi North 6.9 mph - N/A   Clear
1:33 PM 5.0 °F -8.1 °F -4.0 °F 66% 30.17 in 10.0 mi NW 8.1 mph - N/A   Clear
1:53 PM 6.8 °F -6.9 °F -4.0 °F 61% 30.17 in 10.0 mi North 9.2 mph - N/A   Clear
2:13 PM 6.8 °F -5.9 °F -4.0 °F 61% 30.17 in 10.0 mi North 8.1 mph - N/A   Clear
2:33 PM 6.8 °F -5.9 °F -4.0 °F 61% 30.18 in 10.0 mi North 8.1 mph - N/A   Clear
2:51 PM 6.8 °F -5.9 °F -2.2 °F 67% 30.18 in 10.0 mi North 8.1 mph - N/A   Clear
3:12 PM 6.8 °F -4.8 °F -2.2 °F 67% 30.19 in 10.0 mi NNW 6.9 mph - N/A   Clear
3:32 PM 6.8 °F -0.1 °F -2.2 °F 67% 30.19 in 10.0 mi NNW 3.5 mph - N/A   Clear
3:52 PM 6.8 °F - -2.2 °F 67% 30.19 in 10.0 mi Calm Calm - N/A   Clear
4:12 PM 6.8 °F - -2.2 °F 67% 30.20 in 10.0 mi Calm Calm - N/A   Clear
4:32 PM 5.0 °F - -2.2 °F 72% 30.20 in 10.0 mi Calm Calm - N/A   Clear
5:13 PM -0.4 °F - -5.8 °F 78% 30.21 in 5.0 mi Calm Calm - N/A   Haze
5:33 PM -2.2 °F - -5.8 °F 85% 30.21 in 10.0 mi Calm Calm - N/A   Clear
5:53 PM -4.0 °F - -7.6 °F 85% 30.22 in 10.0 mi Calm Calm - N/A   Clear
5:59 PM -5.8 °F - -9.4 °F 84% 30.22 in 10.0 mi Calm Calm - N/A   Clear
6:33 PM -5.8 °F - -9.4 °F 84% 30.22 in 10.0 mi Calm Calm - N/A   Clear
6:53 PM -7.6 °F - -11.2 °F 84% 30.22 in 10.0 mi Calm Calm - N/A   Clear
7:13 PM -7.6 °F - -9.4 °F 92% 30.22 in 10.0 mi Calm Calm - N/A   Clear
7:33 PM -9.4 °F - -11.2 °F 92% 30.23 in 10.0 mi Calm Calm - N/A   Clear
7:53 PM -9.4 °F - -14.8 °F 77% 30.22 in 10.0 mi Calm Calm - N/A   Clear
8:33 PM -11.2 °F - -14.8 °F 84% 30.22 in 10.0 mi Calm Calm - N/A   Clear
8:53 PM -11.2 °F - -16.6 °F 77% 30.21 in 10.0 mi Calm Calm - N/A   Clear
9:13 PM -11.2 °F - -16.6 °F 77% 30.21 in 10.0 mi Calm Calm - N/A   Clear
9:33 PM -11.2 °F - -16.6 °F 77% 30.22 in 10.0 mi Calm Calm - N/A   Clear
10:13 PM -14.8 °F - -18.4 °F 84% 30.22 in 7.0 mi Calm Calm - N/A   Clear
10:32 PM -14.8 °F - -18.4 °F 84% 30.23 in 4.0 mi Calm Calm - N/A   Clear
10:53 PM -14.8 °F - -18.4 °F 84% 30.23 in 10.0 mi Calm Calm - N/A   Clear
11:12 PM -14.8 °F - -18.4 °F 84% 30.22 in 10.0 mi Calm Calm - N/A   Clear
11:33 PM -16.6 °F - -20.2 °F 84% 30.22 in 10.0 mi Calm Calm - N/A   Clear
11:53 PM -14.8 °F - -20.2 °F 77% 30.22 in 10.0 mi Calm Calm - N/A   Clear